[[{"header":{"parameterUnit":"m.s-1","parameterCategory":2,"la1":30.2991,"la2":30.254,"lo1":-89.0895,"lo2":-89.0444,"dy":0.0017,"dx":0.0017,"nx":28,"ny":28,"refTime":"2025-05-15T21:00:00:Z","depth":"0","parameterNumber":2,"parameterNumberName":"U-component_of_CURRENTS"},"data":[0,0,0,0,0,0,0,0,0,0,0,0,0,0,0,0,0,0,0,0,0,0,0,0,0,0,0,0,0,0,0,0,0,0,0,0,0,0,0,0,0,0,0,0,0,0,0,0,0,0,0,0,0,0,0,0,0,0,-0.2435,-0.2435,0,-0.2405,-0.2404,-0.2404,-0.2367,-0.2367,-0.2367,-0.2367,-0.236,-0.236,-0.236,0,0,0,0,0,0,0,0,0,0,0,0,0,-0.2393,-0.2394,-0.2435,-0.2435,-0.2435,-0.2405,-0.2404,-0.2404,-0.2367,-0.2367,-0.2367,-0.2367,-0.236,-0.236,-0.236,0,0,0,0,0,0,0,0,0,0,0,0,0,-0.2388,-0.2394,-0.2435,-0.2417,-0.2415,-0.2405,-0.2404,-0.2403,-0.2367,-0.2367,-0.2367,-0.2367,-0.236,-0.236,-0.236,-0.2365,0,0,-0.236,-0.236,0,0,0,0,0,0,0,0,-0.2388,-0.2389,-0.2419,-0.2418,-0.2416,-0.2394,-0.2387,-0.2393,-0.2367,-0.2381,-0.2367,-0.2367,-0.2377,-0.2375,-0.2363,-0.2364,-0.2364,-0.236,-0.236,-0.236,-0.236,0,0,0,0,0,0,0,-0.2389,-0.239,-0.2419,-0.2419,-0.2417,-0.2387,-0.2386,-0.2387,-0.2377,-0.238,-0.2378,-0.2382,-0.2375,-0.2363,-0.2363,-0.2364,-0.236,-0.236,-0.236,-0.236,-0.2361,-0.2361,0,0,0,0,0,0,-0.2406,-0.2391,-0.242,-0.2418,-0.2406,-0.2389,-0.2387,-0.2397,-0.2377,-0.2375,-0.2382,-0.238,-0.2364,-0.2363,-0.2363,-0.2379,-0.236,-0.236,-0.236,-0.2361,-0.2361,-0.2361,0,0,0,0,0,0,-0.2405,-0.2409,-0.2421,-0.2406,-0.2407,-0.2391,-0.2401,-0.2397,-0.2387,-0.2379,-0.2376,-0.2378,-0.2363,-0.2363,-0.2354,-0.2378,-0.236,-0.236,-0.236,-0.2361,-0.2361,-0.2404,0,0,0,0,0,0,-0.2404,-0.2409,-0.2414,-0.2408,-0.2408,-0.2426,-0.2402,-0.2397,-0.2392,-0.2389,-0.2375,-0.2373,-0.2363,-0.2354,-0.2354,-0.2378,-0.236,-0.236,-0.2361,-0.2361,-0.2402,-0.2405,-0.2408,0,0,0,0,0,-0.2402,-0.2415,-0.2414,-0.2418,-0.2419,-0.2427,-0.2424,-0.2408,-0.2392,-0.2395,-0.2371,-0.2374,-0.2355,-0.2353,-0.2353,-0.2378,-0.236,-0.236,-0.2361,-0.2401,-0.2405,-0.2408,0,0,0,0,0,0,-0.2391,-0.2412,-0.2412,-0.2428,-0.2433,-0.2423,-0.242,-0.2412,-0.2393,-0.2385,-0.237,-0.2367,-0.2369,-0.2362,-0.2361,-0.2376,-0.2361,-0.2361,-0.2392,-0.2395,-0.2398,-0.2412,-0.236,0,0,0,0,0,-0.2396,-0.241,-0.2425,-0.2433,-0.2441,-0.243,-0.2428,-0.2422,-0.241,-0.24,-0.239,-0.2376,-0.237,-0.2372,-0.2363,-0.2372,-0.2359,-0.2388,-0.2391,-0.2393,-0.2403,-0.2394,-0.2398,-0.2361,-0.2361,-0.2361,0,0,-0.239,-0.2405,-0.241,-0.2432,-0.2429,-0.245,-0.2427,-0.243,-0.2442,-0.2405,-0.2405,-0.2384,-0.2371,-0.2376,-0.2378,-0.2375,-0.2393,-0.2393,-0.2396,-0.2404,-0.2395,-0.2398,-0.2402,-0.2361,-0.2361,-0.2361,0,0,-0.2392,-0.2404,-0.242,-0.2438,-0.2452,-0.2454,-0.2461,-0.2459,-0.2453,-0.2451,-0.2426,-0.2415,-0.2408,-0.2403,-0.24,-0.2414,-0.2404,-0.2416,-0.2451,-0.2442,-0.2445,-0.2448,-0.2425,-0.2426,-0.2423,-0.2423,-0.2423,0,-0.2382,-0.2413,-0.2423,-0.2452,-0.2468,-0.2464,-0.2488,-0.2488,-0.248,-0.2476,-0.2458,-0.2434,-0.2423,-0.2433,-0.2435,-0.2424,-0.241,-0.2442,-0.2447,-0.245,-0.2452,-0.2428,-0.2428,-0.2426,-0.2425,-0.2425,-0.2425,0,-0.2401,-0.2433,-0.2444,-0.2485,-0.2503,-0.2522,-0.254,-0.2543,-0.2532,-0.2526,-0.2521,-0.2492,-0.2479,-0.2478,-0.2462,-0.2478,-0.2459,-0.2448,-0.2443,-0.2459,-0.2432,-0.2431,-0.2429,-0.2428,-0.2427,-0.2427,0,0,-0.2352,-0.2443,-0.2444,-0.2478,-0.2525,-0.2538,-0.2569,-0.2589,-0.2595,-0.2583,-0.2586,-0.2573,-0.2549,-0.2543,-0.2523,-0.252,-0.2517,-0.2497,-0.2495,-0.2482,-0.2488,-0.2351,-0.2336,-0.2509,-0.2509,-0.2509,-0.246,0,-0.2359,-0.2425,-0.2469,-0.2523,-0.2557,-0.2586,-0.2613,-0.263,-0.2628,-0.2629,-0.2609,-0.2601,-0.2579,-0.2567,-0.2563,-0.2528,-0.2518,-0.2531,-0.2469,-0.2467,-0.2349,-0.2332,-0.223,-0.2166,-0.2459,-0.2459,-0.2458,0,-0.2348,-0.2403,-0.2463,-0.255,-0.2565,-0.2597,-0.2632,-0.266,-0.2673,-0.2669,-0.2665,-0.2645,-0.2641,-0.2613,-0.2576,-0.2585,-0.2544,-0.2513,-0.251,-0.2369,-0.2328,-0.2198,-0.2153,-0.2144,-0.2457,-0.2457,-0.2457,0,-0.2284,-0.2389,-0.2437,-0.2467,-0.2563,-0.2588,-0.263,-0.2659,-0.2664,-0.2694,-0.2677,-0.2686,-0.2662,-0.2637,-0.2564,-0.2578,-0.2503,-0.2514,-0.2352,-0.2342,-0.2234,-0.2213,-0.2178,-0.2485,-0.2485,-0.2485,-0.2485,0,-0.2259,-0.2291,-0.2415,-0.2438,-0.2489,-0.2564,-0.26,-0.2634,-0.2661,-0.2612,-0.2687,-0.2625,-0.2665,-0.2614,-0.2572,-0.2437,-0.2506,-0.2348,-0.2316,-0.2242,-0.2222,-0.2192,-0.2232,-0.2483,-0.2484,-0.2484,-0.2484,0,-0.2156,-0.2244,-0.2303,-0.2421,-0.2458,-0.2486,-0.2576,-0.253,-0.2628,-0.2563,-0.2563,-0.2587,-0.2503,-0.251,-0.2454,-0.2411,-0.2276,-0.226,-0.2159,-0.2114,-0.1944,-0.1989,-0.1931,-0.1876,-0.2087,-0.2083,-0.208,0,-0.2104,-0.2125,-0.2261,-0.2258,-0.2306,-0.2378,-0.2342,-0.2472,-0.2406,-0.2468,-0.2355,-0.2364,-0.226,-0.2186,-0.2118,-0.204,-0.2085,-0.1924,-0.1926,-0.1904,-0.1934,-0.1989,-0.1953,-0.181,-0.1805,-0.1801,-0.1797,0,-0.1984,-0.2032,-0.2072,-0.2087,-0.2073,-0.2074,-0.2062,-0.2042,-0.2097,-0.2095,-0.2019,-0.2005,-0.1954,-0.1847,-0.1803,-0.174,-0.1881,-0.1829,-0.1848,-0.1737,-0.1757,-0.1697,-0.1878,-0.176,-0.1764,-0.1766,-0.1768,-0.177,-0.1854,-0.185,-0.1878,-0.1872,-0.1831,-0.1701,-0.166,-0.1603,-0.1552,-0.1491,-0.1636,-0.1603,-0.1677,-0.1584,-0.152,-0.1432,-0.1527,-0.1436,-0.1501,-0.1564,-0.1483,-0.1557,-0.137,-0.1372,-0.1373,-0.1374,-0.1375,0,-0.1676,-0.1663,-0.1631,-0.1604,-0.1453,-0.151,-0.1377,-0.1291,-0.1152,-0.1127,-0.115,-0.127,-0.1222,-0.1276,-0.1229,-0.1174,-0.1187,-0.1178,-0.1275,-0.1258,-0.1344,-0.1301,-0.1039,-0.1039,-0.1039,-0.1039,-0.104,-0.104,-0.1575,-0.1484,-0.1475,-0.1232,-0.1179,-0.0965,-0.0864,-0.0753,-0.0723,-0.0663,-0.0727,-0.0836,-0.1046,-0.1238,-0.1179,-0.1114,-0.1136,-0.1084,-0.1138,-0.1251,-0.1283,-0.1313,-0.128,-0.1019,-0.1019,-0.0999,-0.0999,-0.0999]},{"header":{"parameterUnit":"m.s-1","parameterCategory":2,"la1":30.2991,"la2":30.254,"lo1":-89.0895,"lo2":-89.0444,"dy":0.0017,"dx":0.0017,"nx":28,"ny":28,"refTime":"2025-05-15T21:00:00:Z","depth":"0","parameterNumber":3,"parameterNumberName":"V-component_of_CURRENTS"},"data":[0,0,0,0,0,0,0,0,0,0,0,0,0,0,0,0,0,0,0,0,0,0,0,0,0,0,0,0,0,0,0,0,0,0,0,0,0,0,0,0,0,0,0,0,0,0,0,0,0,0,0,0,0,0,0,0,0,0,-0.016,-0.016,0,-0.0091,-0.009,-0.0089,-0.0043,-0.0043,-0.0043,-0.0042,0.0136,0.014,0.0145,0,0,0,0,0,0,0,0,0,0,0,0,0,-0.0202,-0.0202,-0.016,-0.016,-0.0159,-0.0091,-0.009,-0.0089,-0.0043,-0.0043,-0.0042,-0.0042,0.0134,0.014,0.0145,0,0,0,0,0,0,0,0,0,0,0,0,0,-0.0163,-0.0202,-0.0161,-0.0128,-0.0125,-0.0091,-0.009,-0.0089,-0.0043,-0.0043,-0.0042,-0.0042,0.0133,0.0139,0.0146,0.0181,0,0,0.0167,0.017,0,0,0,0,0,0,0,0,-0.0165,-0.0162,-0.0134,-0.0131,-0.0127,-0.0076,-0.004,0.0006,-0.0043,-0.0073,-0.0042,-0.0042,0.0074,0.0086,0.0098,0.0189,0.0197,0.0167,0.0171,0.0174,0.0176,0,0,0,0,0,0,0,-0.0168,-0.0164,-0.0132,-0.0133,-0.0129,-0.01,-0.0094,-0.0031,0.0,-0.0071,-0.0067,-0.0061,0.0077,0.0091,0.0103,0.0199,0.0167,0.0173,0.0177,0.018,0.0316,0.0315,0,0,0,0,0,0,-0.0182,-0.0167,-0.0134,-0.013,-0.0146,-0.01,-0.0094,-0.0092,-0.0003,0.001,-0.0061,-0.0059,0.0079,0.0095,0.0109,0.0137,0.0174,0.0181,0.0184,0.0316,0.0316,0.0315,0,0,0,0,0,0,-0.0183,-0.018,-0.0137,-0.0147,-0.014,-0.01,-0.0098,-0.0091,-0.0078,0.0003,0.0018,-0.0057,0.008,0.01,0.0146,0.0146,0.0184,0.019,0.0317,0.0316,0.0315,0.0207,0,0,0,0,0,0,-0.0185,-0.0181,-0.0187,-0.0148,-0.014,-0.0127,-0.0098,-0.009,-0.0075,-0.0071,0.0013,0.0029,0.0082,0.0135,0.0153,0.0156,0.0195,0.0317,0.0316,0.0316,0.0211,0.0202,0.0195,0,0,0,0,0,-0.0186,-0.0202,-0.0187,-0.0183,-0.0149,-0.0127,-0.0121,-0.009,-0.0075,-0.0076,-0.0029,0.0026,0.0143,0.014,0.0161,0.0166,0.0318,0.0317,0.0316,0.0214,0.0204,0.0195,0,0,0,0,0,0,-0.0228,-0.0197,-0.0181,-0.0187,-0.0162,-0.012,-0.012,-0.0095,-0.006,-0.0055,0.002,0.004,0.008,0.0137,0.0132,0.0202,0.0241,0.0244,0.0157,0.0148,0.014,0.0126,0.0201,0,0,0,0,0,-0.024,-0.0241,-0.0204,-0.021,-0.02,-0.016,-0.0148,-0.0126,-0.0089,-0.0074,-0.0016,0.0044,0.0093,0.0128,0.0181,0.0223,0.0291,0.024,0.0232,0.0225,0.0227,0.0306,0.0305,0.0312,0.0312,0.0312,0,0,-0.0258,-0.0242,-0.0243,-0.0219,-0.0197,-0.0196,-0.0152,-0.0141,-0.0137,-0.0057,-0.0035,0.0019,0.0096,0.0132,0.0157,0.018,0.026,0.0224,0.0217,0.0223,0.0305,0.0304,0.0304,0.0311,0.0311,0.0311,0,0,-0.0305,-0.0281,-0.0301,-0.0282,-0.0256,-0.0227,-0.0228,-0.0187,-0.0165,-0.0136,-0.0084,-0.0036,0.0046,0.0094,0.013,0.0116,0.0211,0.0136,0.0094,0.0169,0.0169,0.017,0.0258,0.0268,0.0138,0.0137,0.0137,0,-0.0332,-0.0347,-0.0303,-0.0316,-0.0308,-0.0248,-0.0265,-0.0234,-0.0184,-0.0161,-0.0141,-0.0031,0.0029,0.0079,0.0064,0.01,0.0161,0.012,0.0158,0.0161,0.0163,0.0254,0.0266,0.0132,0.0133,0.0133,0.0134,0,-0.0391,-0.04,-0.041,-0.0404,-0.0386,-0.0391,-0.0341,-0.0318,-0.0279,-0.0238,-0.018,-0.0106,-0.0034,-0.0014,0.002,0.0067,0.011,0.0133,0.0178,0.0156,0.0253,0.0268,0.0124,0.0126,0.0128,0.0129,0,0,-0.0458,-0.0456,-0.0458,-0.046,-0.0433,-0.0418,-0.041,-0.0372,-0.0345,-0.0291,-0.025,-0.0184,-0.0129,-0.0085,-0.0027,0.0029,0.0096,0.0078,0.0085,0.0159,0.0275,0.0338,0.0361,0.0122,0.0124,0.0125,0.0336,0,-0.052,-0.0569,-0.054,-0.0563,-0.058,-0.0515,-0.0499,-0.0449,-0.0393,-0.0333,-0.025,-0.0182,-0.0158,-0.0113,-0.0063,0.0065,0.0128,0.0038,0.0292,0.03,0.0353,0.0377,0.0386,0.0577,0.0351,0.0353,0.0355,0,-0.0588,-0.0608,-0.066,-0.0629,-0.0624,-0.0622,-0.0564,-0.0534,-0.0439,-0.0386,-0.0317,-0.0235,-0.0142,-0.0116,0.0076,0.0017,0.013,0.0223,0.0234,0.0342,0.039,0.0564,0.0613,0.0737,0.0378,0.0377,0.0375,0,-0.066,-0.0676,-0.0718,-0.0717,-0.0684,-0.0677,-0.064,-0.0561,-0.0483,-0.041,-0.0331,-0.0241,-0.0127,-0.002,0.017,0.0128,0.0402,0.0378,0.0543,0.055,0.0635,0.0646,0.083,0.0513,0.0512,0.0512,0.0511,0,-0.0738,-0.0758,-0.0755,-0.0777,-0.078,-0.073,-0.0672,-0.0642,-0.0513,-0.0372,-0.0352,-0.022,-0.0094,0.0082,0.019,0.0436,0.0431,0.0553,0.0612,0.0598,0.0602,0.0777,0.0812,0.052,0.0518,0.0516,0.0515,0,-0.0809,-0.0816,-0.0851,-0.0838,-0.0822,-0.0821,-0.0668,-0.0568,-0.0504,-0.032,-0.0279,-0.0144,0.0061,0.0206,0.0438,0.0522,0.0801,0.0793,0.0775,0.0825,0.1038,0.1065,0.1334,0.1433,0.0983,0.0986,0.0989,0,-0.0851,-0.0889,-0.0899,-0.0867,-0.0859,-0.0801,-0.0694,-0.0589,-0.0438,-0.0235,-0.0114,0.0071,0.0239,0.0548,0.0706,0.091,0.099,0.1059,0.0964,0.1075,0.1149,0.1164,0.1227,0.1043,0.1046,0.1048,0.105,0,-0.0915,-0.0926,-0.0944,-0.0889,-0.0809,-0.0686,-0.0536,-0.0433,-0.0223,-0.0082,0.0142,0.0251,0.0515,0.0714,0.0941,0.1052,0.1145,0.1111,0.1237,0.1225,0.1246,0.136,0.0888,0.1069,0.1067,0.1066,0.1065,0.1064,-0.0936,-0.0954,-0.0938,-0.0867,-0.0758,-0.057,-0.0473,-0.0258,-0.0059,0.0185,0.0322,0.0508,0.0724,0.0996,0.1139,0.1391,0.1349,0.1441,0.1474,0.1487,0.1552,0.1127,0.1357,0.1357,0.1357,0.1357,0.1357,0,-0.092,-0.0906,-0.0858,-0.0768,-0.0615,-0.0562,-0.0325,-0.0188,0.0031,0.0275,0.0475,0.079,0.1033,0.124,0.1553,0.1721,0.1743,0.1812,0.182,0.1874,0.152,0.1489,0.1744,0.1744,0.1744,0.1744,0.1744,0.1743,-0.0897,-0.0855,-0.0818,-0.062,-0.0539,-0.0343,-0.0228,-0.0054,0.012,0.0439,0.066,0.0814,0.1113,0.1648,0.1991,0.2034,0.2195,0.2185,0.2299,0.2012,0.1978,0.1946,0.1927,0.227,0.2271,0.2631,0.2634,0.2637]}],[{"header":{"parameterUnit":"m.s-1","parameterCategory":2,"la1":30.2991,"la2":30.254,"lo1":-89.0895,"lo2":-89.0444,"dy":0.0017,"dx":0.0017,"nx":28,"ny":28,"refTime":"2025-05-15T21:00:00:Z","depth":"2","parameterNumber":2,"parameterNumberName":"U-component_of_CURRENTS"},"data":[0,0,0,0,0,0,0,0,0,0,0,0,0,0,0,0,0,0,0,0,0,0,0,0,0,0,0,0,0,0,0,0,0,0,0,0,0,0,0,0,0,0,0,0,0,0,0,0,0,0,0,0,0,0,0,0,0,0,-0.2294,-0.2294,0,-0.2291,-0.229,-0.229,-0.2268,-0.2268,-0.2268,-0.2267,-0.2258,-0.2258,-0.2258,0,0,0,0,0,0,0,0,0,0,0,0,0,-0.2236,-0.2237,-0.2294,-0.2294,-0.2295,-0.2291,-0.229,-0.229,-0.2268,-0.2268,-0.2268,-0.2267,-0.2258,-0.2258,-0.2258,0,0,0,0,0,0,0,0,0,0,0,0,0,-0.2246,-0.2237,-0.2294,-0.2286,-0.2286,-0.2291,-0.229,-0.229,-0.2268,-0.2268,-0.2268,-0.2267,-0.2258,-0.2258,-0.2258,-0.2263,0,0,-0.2258,-0.2258,0,0,0,0,0,0,0,0,-0.2246,-0.2248,-0.2287,-0.2287,-0.2286,-0.2283,-0.2266,-0.2282,-0.2268,-0.2271,-0.2267,-0.2267,-0.2268,-0.2267,-0.2262,-0.2263,-0.2262,-0.2258,-0.2257,-0.2257,-0.2257,0,0,0,0,0,0,0,-0.2245,-0.2248,-0.2289,-0.2287,-0.2287,-0.2267,-0.2268,-0.2269,-0.2268,-0.2271,-0.227,-0.2275,-0.2268,-0.2262,-0.2262,-0.2262,-0.2258,-0.2257,-0.2257,-0.2257,-0.2268,-0.2268,0,0,0,0,0,0,-0.2256,-0.2248,-0.2289,-0.2289,-0.2269,-0.2269,-0.227,-0.2281,-0.2268,-0.2267,-0.2276,-0.2275,-0.2263,-0.2262,-0.2261,-0.2283,-0.2257,-0.2257,-0.2257,-0.2267,-0.2268,-0.2268,0,0,0,0,0,0,-0.2255,-0.226,-0.2289,-0.2271,-0.2273,-0.2271,-0.2283,-0.2281,-0.228,-0.2273,-0.2271,-0.2277,-0.2262,-0.2262,-0.2261,-0.2282,-0.2257,-0.2257,-0.2267,-0.2268,-0.2268,-0.2315,0,0,0,0,0,0,-0.2253,-0.226,-0.2267,-0.2272,-0.2275,-0.2304,-0.2284,-0.2281,-0.2286,-0.2284,-0.2274,-0.2272,-0.2262,-0.2261,-0.2261,-0.2281,-0.2257,-0.2267,-0.2267,-0.2268,-0.2313,-0.2317,-0.232,0,0,0,0,0,-0.2251,-0.2266,-0.2267,-0.2272,-0.2287,-0.2305,-0.2304,-0.2298,-0.2286,-0.2294,-0.2278,-0.2273,-0.2265,-0.2261,-0.2261,-0.2281,-0.2266,-0.2267,-0.2268,-0.2311,-0.2316,-0.232,0,0,0,0,0,0,-0.224,-0.2266,-0.2267,-0.2288,-0.2301,-0.2303,-0.2307,-0.2303,-0.2296,-0.229,-0.2276,-0.2274,-0.2281,-0.2272,-0.2268,-0.2285,-0.2266,-0.2267,-0.2299,-0.2304,-0.2307,-0.2317,-0.2257,0,0,0,0,0,-0.2244,-0.2262,-0.2282,-0.2296,-0.2307,-0.2307,-0.2311,-0.231,-0.2308,-0.2304,-0.2296,-0.2286,-0.2284,-0.2286,-0.228,-0.2291,-0.2274,-0.2303,-0.2307,-0.231,-0.2317,-0.2306,-0.231,-0.2271,-0.2271,-0.2271,0,0,-0.2241,-0.2259,-0.2266,-0.2295,-0.23,-0.2324,-0.2308,-0.2321,-0.2336,-0.2305,-0.2314,-0.23,-0.2288,-0.2297,-0.2301,-0.2293,-0.2311,-0.2311,-0.2314,-0.2319,-0.2307,-0.2311,-0.2315,-0.2271,-0.2271,-0.2271,0,0,-0.2249,-0.2263,-0.2284,-0.2304,-0.2327,-0.2333,-0.2342,-0.2351,-0.2352,-0.236,-0.234,-0.2335,-0.2333,-0.2329,-0.2326,-0.2348,-0.2329,-0.2349,-0.238,-0.237,-0.2373,-0.2376,-0.2354,-0.2354,-0.2353,-0.2353,-0.2353,0,-0.2242,-0.2276,-0.229,-0.2321,-0.2339,-0.2343,-0.237,-0.2377,-0.2382,-0.2383,-0.2369,-0.2359,-0.2349,-0.2362,-0.2368,-0.2359,-0.2343,-0.2366,-0.2376,-0.2378,-0.238,-0.2356,-0.2356,-0.2355,-0.2355,-0.2355,-0.2355,0,-0.2269,-0.23,-0.2315,-0.2357,-0.2378,-0.2402,-0.2425,-0.2435,-0.2431,-0.2432,-0.2438,-0.2418,-0.241,-0.241,-0.2396,-0.2411,-0.2392,-0.238,-0.2367,-0.2387,-0.236,-0.2359,-0.2359,-0.2358,-0.2357,-0.2357,0,0,-0.2233,-0.2319,-0.2321,-0.2353,-0.2401,-0.2419,-0.2453,-0.248,-0.2491,-0.2491,-0.25,-0.2496,-0.2477,-0.2472,-0.2456,-0.2451,-0.2448,-0.2426,-0.2425,-0.2408,-0.2416,-0.2317,-0.2306,-0.2439,-0.2439,-0.2439,-0.239,0,-0.2244,-0.2311,-0.235,-0.2405,-0.244,-0.2469,-0.25,-0.2522,-0.2527,-0.2535,-0.2524,-0.2521,-0.2505,-0.2495,-0.2492,-0.2458,-0.2448,-0.2461,-0.2395,-0.2393,-0.2306,-0.2303,-0.2127,-0.2061,-0.2388,-0.2388,-0.2388,0,-0.2244,-0.2295,-0.2355,-0.2437,-0.2453,-0.2484,-0.2523,-0.2553,-0.2574,-0.2575,-0.2577,-0.2561,-0.2559,-0.2534,-0.25,-0.2509,-0.2469,-0.2441,-0.2438,-0.233,-0.2292,-0.2094,-0.2047,-0.2386,-0.2386,-0.2386,-0.2386,0,-0.2194,-0.2291,-0.2339,-0.2367,-0.2457,-0.2481,-0.2521,-0.2554,-0.2572,-0.2594,-0.259,-0.2594,-0.2575,-0.2548,-0.2491,-0.2495,-0.2439,-0.2434,-0.231,-0.2302,-0.2131,-0.2107,-0.2407,-0.2407,-0.2407,-0.2407,-0.2408,0,-0.218,-0.2213,-0.2322,-0.2345,-0.2387,-0.2463,-0.2496,-0.2527,-0.2573,-0.2586,-0.26,-0.2581,-0.2576,-0.254,-0.2499,-0.2392,-0.2443,-0.231,-0.2282,-0.214,-0.2119,-0.2386,-0.2384,-0.2405,-0.2406,-0.2406,-0.2407,0,-0.2095,-0.2177,-0.2228,-0.2333,-0.2361,-0.2382,-0.2473,-0.2514,-0.2547,-0.2562,-0.2567,-0.2569,-0.2504,-0.2482,-0.2424,-0.2375,-0.2302,-0.2252,-0.2081,-0.2032,-0.2172,-0.2174,-0.2109,-0.2105,-0.2101,-0.2099,-0.2096,0,-0.2054,-0.2076,-0.2182,-0.2192,-0.2233,-0.2294,-0.2355,-0.2471,-0.2528,-0.2532,-0.2546,-0.2485,-0.2397,-0.2276,-0.2181,-0.2078,-0.2185,-0.1895,-0.187,-0.2162,-0.2142,-0.2148,-0.2154,-0.1661,-0.1655,-0.1651,-0.1647,0,-0.195,-0.1987,-0.2015,-0.2048,-0.2115,-0.2216,-0.2318,-0.2375,-0.2504,-0.2506,-0.2455,-0.2358,-0.2185,-0.1965,-0.185,-0.1782,-0.19,-0.1794,-0.2134,-0.1766,-0.1736,-0.1718,-0.1739,-0.1605,-0.161,-0.1613,-0.1615,-0.1617,-0.1829,-0.1814,-0.1846,-0.1861,-0.1962,-0.2106,-0.2134,-0.227,-0.2339,-0.2279,-0.2295,-0.2046,-0.1935,-0.1598,-0.1508,-0.1445,-0.1572,-0.1531,-0.1547,-0.1568,-0.1527,-0.1493,-0.1308,-0.1311,-0.1313,-0.1315,-0.1316,0,-0.1668,-0.1661,-0.1655,-0.169,-0.1736,-0.1906,-0.2071,-0.2035,-0.2063,-0.2041,-0.1912,-0.1584,-0.1389,-0.1282,-0.109,-0.1064,-0.1074,-0.1051,-0.1069,-0.1109,-0.1145,-0.1086,-0.0748,-0.0747,-0.0746,-0.0744,0,0,-0.1575,-0.1506,-0.1509,-0.1464,-0.1523,-0.161,-0.1711,-0.1651,-0.1593,-0.1466,-0.1335,-0.1272,-0.1219,-0.098,-0.0932,-0.0804,-0.0954,-0.0765,-0.1215,-0.1275,-0.1309,-0.1409,-0.136,0,0,0,0,0]},{"header":{"parameterUnit":"m.s-1","parameterCategory":2,"la1":30.2991,"la2":30.254,"lo1":-89.0895,"lo2":-89.0444,"dy":0.0017,"dx":0.0017,"nx":28,"ny":28,"refTime":"2025-05-15T21:00:00:Z","depth":"2","parameterNumber":3,"parameterNumberName":"V-component_of_CURRENTS"},"data":[0,0,0,0,0,0,0,0,0,0,0,0,0,0,0,0,0,0,0,0,0,0,0,0,0,0,0,0,0,0,0,0,0,0,0,0,0,0,0,0,0,0,0,0,0,0,0,0,0,0,0,0,0,0,0,0,0,0,-0.0273,-0.0272,0,-0.0197,-0.0196,-0.0195,-0.0153,-0.0153,-0.0152,-0.0152,-0.0009,-0.0005,-0.0002,0,0,0,0,0,0,0,0,0,0,0,0,0,-0.0326,-0.0326,-0.0273,-0.0272,-0.0271,-0.0197,-0.0196,-0.0195,-0.0153,-0.0153,-0.0152,-0.0152,-0.001,-0.0006,-0.0001,0,0,0,0,0,0,0,0,0,0,0,0,0,-0.0281,-0.0326,-0.0273,-0.0242,-0.0238,-0.0198,-0.0196,-0.0195,-0.0153,-0.0153,-0.0152,-0.0152,-0.0012,-0.0006,-0.0001,0.0032,0,0,0.0017,0.0019,0,0,0,0,0,0,0,0,-0.0284,-0.0279,-0.0247,-0.0244,-0.024,-0.0185,-0.0162,-0.0116,-0.0153,-0.0184,-0.0152,-0.0152,-0.0062,-0.0052,-0.0038,0.0039,0.0045,0.0017,0.002,0.0023,0.0024,0,0,0,0,0,0,0,-0.0287,-0.0282,-0.0242,-0.0247,-0.0242,-0.0213,-0.0207,-0.0153,-0.0123,-0.0182,-0.0178,-0.0171,-0.006,-0.0044,-0.0034,0.0047,0.0017,0.0022,0.0025,0.0028,0.0153,0.0153,0,0,0,0,0,0,-0.0301,-0.0285,-0.0245,-0.024,-0.0263,-0.0212,-0.0205,-0.0202,-0.0125,-0.0114,-0.0172,-0.017,-0.0053,-0.0041,-0.0029,0.0007,0.0023,0.0028,0.0031,0.0153,0.0153,0.0153,0,0,0,0,0,0,-0.0303,-0.0299,-0.0248,-0.0261,-0.0253,-0.0212,-0.0208,-0.0201,-0.0185,-0.0118,-0.0105,-0.0164,-0.0053,-0.0037,0.0011,0.0013,0.0031,0.0036,0.0153,0.0153,0.0153,0.0083,0,0,0,0,0,0,-0.0305,-0.03,-0.0303,-0.0263,-0.0253,-0.023,-0.0208,-0.0199,-0.0182,-0.0178,-0.0107,-0.0094,-0.0052,0.0002,0.0016,0.0021,0.004,0.0153,0.0153,0.0153,0.0086,0.0081,0.0077,0,0,0,0,0,-0.0307,-0.0315,-0.0304,-0.0299,-0.0259,-0.023,-0.0222,-0.0191,-0.0182,-0.0177,-0.0133,-0.0097,0.0012,0.0006,0.0023,0.003,0.0153,0.0153,0.0153,0.0088,0.0082,0.0077,0,0,0,0,0,0,-0.0343,-0.031,-0.0297,-0.0296,-0.0268,-0.0223,-0.0218,-0.0196,-0.0158,-0.0155,-0.0093,-0.0077,-0.0036,0.0007,-0.0001,0.0065,0.0087,0.0091,0.0032,0.0027,0.0023,0.0009,0.0045,0,0,0,0,0,-0.0353,-0.035,-0.0311,-0.0312,-0.0299,-0.0259,-0.0244,-0.0223,-0.0184,-0.0168,-0.0119,-0.0068,-0.0023,0.0008,0.0054,0.0095,0.0141,0.011,0.0105,0.0101,0.0101,0.0164,0.0166,0.0152,0.0152,0.0152,0,0,-0.0368,-0.0349,-0.0348,-0.0319,-0.0295,-0.0283,-0.025,-0.0232,-0.0219,-0.0157,-0.0125,-0.0081,-0.0017,0.0022,0.0045,0.0059,0.0128,0.0101,0.0097,0.0099,0.0164,0.0166,0.0167,0.0152,0.0152,0.0152,0,0,-0.0399,-0.038,-0.0387,-0.0365,-0.0334,-0.0305,-0.0303,-0.0259,-0.0236,-0.02,-0.0157,-0.0113,-0.0041,0.0004,0.0037,0.0039,0.0098,0.0051,0.0026,0.0087,0.0088,0.009,0.0144,0.0152,0.0054,0.0053,0.0053,0,-0.0421,-0.0423,-0.0385,-0.0383,-0.0369,-0.0319,-0.032,-0.0288,-0.0235,-0.0213,-0.02,-0.0099,-0.0048,0.0007,0.0001,0.003,0.0069,0.0038,0.008,0.0083,0.0087,0.0142,0.0151,0.005,0.005,0.0051,0.0051,0,-0.0454,-0.0453,-0.0455,-0.0435,-0.0412,-0.0406,-0.0356,-0.0331,-0.0298,-0.026,-0.0205,-0.0139,-0.0077,-0.0057,-0.0027,0.002,0.0041,0.0062,0.0091,0.0084,0.0142,0.0153,0.0045,0.0047,0.0048,0.0048,0,0,-0.0512,-0.0486,-0.0487,-0.0485,-0.044,-0.0426,-0.0398,-0.0355,-0.0334,-0.0279,-0.0246,-0.0174,-0.0137,-0.0098,-0.005,0.0001,0.0053,0.0032,0.0037,0.0079,0.0183,0.0204,0.0218,0.0078,0.008,0.0081,0.0212,0,-0.0552,-0.0573,-0.0534,-0.054,-0.0546,-0.0481,-0.0455,-0.0406,-0.0357,-0.031,-0.0235,-0.0185,-0.0151,-0.0123,-0.007,0.0024,0.0078,0.0015,0.0189,0.0195,0.0209,0.0231,0.0188,0.0302,0.0223,0.0225,0.0226,0,-0.0599,-0.0607,-0.0631,-0.0595,-0.0587,-0.0577,-0.0523,-0.0489,-0.0405,-0.0363,-0.0299,-0.0236,-0.0153,-0.0127,0.003,-0.0014,0.0074,0.0147,0.0154,0.0207,0.0236,0.0299,0.0325,0.0245,0.0244,0.0242,0.0241,0,-0.0676,-0.0666,-0.0691,-0.0683,-0.0638,-0.0627,-0.0593,-0.0517,-0.0478,-0.0397,-0.0358,-0.0256,-0.019,-0.0077,0.0072,0.0053,0.0249,0.0249,0.0355,0.0357,0.0373,0.0374,0.0363,0.0363,0.0363,0.0362,0.0362,0,-0.074,-0.0752,-0.0734,-0.075,-0.0766,-0.0696,-0.0681,-0.0632,-0.0543,-0.0485,-0.0396,-0.0339,-0.0173,-0.0042,0.0073,0.0254,0.026,0.0359,0.0397,0.0347,0.0345,0.0336,0.0331,0.0367,0.0366,0.0365,0.0364,0,-0.0819,-0.0808,-0.0838,-0.0816,-0.0811,-0.0823,-0.075,-0.0744,-0.063,-0.0552,-0.0523,-0.038,-0.0206,-0.0027,0.0181,0.0271,0.0431,0.0495,0.0421,0.0448,0.0493,0.0483,0.0615,0.0617,0.0618,0.062,0.0621,0,-0.0861,-0.0891,-0.091,-0.0946,-0.0943,-0.0935,-0.0945,-0.0827,-0.0782,-0.0577,-0.0551,-0.0359,-0.0232,0.007,0.0273,0.0501,0.0506,0.0588,0.0544,0.0497,0.0521,0.0509,0.0497,0.054,0.054,0.054,0.0541,0,-0.0936,-0.0948,-0.0975,-0.106,-0.1098,-0.1115,-0.108,-0.1042,-0.0865,-0.0747,-0.0563,-0.0441,-0.0137,0.0084,0.0371,0.0491,0.0542,0.0601,0.06,0.0473,0.0435,0.0455,0.0445,0.0543,0.0543,0.0543,0.0543,0.0543,-0.0987,-0.1037,-0.1087,-0.1159,-0.1224,-0.1269,-0.1252,-0.1176,-0.1063,-0.0843,-0.0661,-0.0422,-0.0184,0.0202,0.0407,0.0614,0.0603,0.0638,0.0634,0.063,0.0589,0.0555,0.0678,0.0679,0.0679,0.0679,0.068,0,-0.104,-0.1093,-0.118,-0.1262,-0.135,-0.1361,-0.1326,-0.1263,-0.1132,-0.0917,-0.0705,-0.0364,-0.0116,0.0171,0.0487,0.0649,0.0628,0.0684,0.0614,0.061,0.0607,0.0561,0.0645,0.0646,0.0647,0.0647,0,0,-0.107,-0.1156,-0.1203,-0.1342,-0.1413,-0.1481,-0.1461,-0.1343,-0.1153,-0.0929,-0.0695,-0.049,-0.01,0.0108,0.0323,0.0501,0.0508,0.0517,0.0522,0.0408,0.0403,0.0557,0.048,0,0,0,0,0]}],[{"header":{"parameterUnit":"m.s-1","parameterCategory":2,"la1":30.2991,"la2":30.254,"lo1":-89.0895,"lo2":-89.0444,"dy":0.0017,"dx":0.0017,"nx":28,"ny":28,"refTime":"2025-05-15T21:00:00:Z","depth":"4","parameterNumber":2,"parameterNumberName":"U-component_of_CURRENTS"},"data":[0,0,0,0,0,0,0,0,0,0,0,0,0,0,0,0,0,0,0,0,0,0,0,0,0,0,0,0,0,0,0,0,0,0,0,0,0,0,0,0,0,0,0,0,0,0,0,0,0,0,0,0,0,0,0,0,0,0,-0.1665,-0.1666,0,-0.1735,-0.1736,-0.1736,-0.1784,-0.1785,-0.1785,-0.1786,-0.1843,-0.1844,-0.1845,0,0,0,0,0,0,0,0,0,0,0,0,0,-0.1558,-0.156,-0.1665,-0.1666,-0.1667,-0.1735,-0.1736,-0.1736,-0.1784,-0.1785,-0.1785,-0.1786,-0.1843,-0.1844,-0.1845,0,0,0,0,0,0,0,0,0,0,0,0,0,-0.1612,-0.156,-0.1665,-0.17,-0.1704,-0.1735,-0.1736,-0.1737,-0.1784,-0.1785,-0.1785,-0.1786,-0.1842,-0.1844,-0.1845,-0.1839,0,0,-0.185,-0.1851,0,0,0,0,0,0,0,0,-0.1609,-0.1616,-0.1694,-0.1698,-0.1703,-0.1753,-0.1719,-0.1771,-0.1784,-0.1751,-0.1786,-0.1787,-0.1813,-0.1817,-0.1825,-0.1842,-0.1844,-0.185,-0.1851,-0.1852,-0.1852,0,0,0,0,0,0,0,-0.1605,-0.1613,-0.169,-0.1695,-0.17,-0.1708,-0.1717,-0.1729,-0.1775,-0.1754,-0.1759,-0.1769,-0.1815,-0.1824,-0.1827,-0.1845,-0.185,-0.1852,-0.1853,-0.1853,-0.193,-0.1931,0,0,0,0,0,0,-0.1601,-0.161,-0.1688,-0.1693,-0.1659,-0.171,-0.1719,-0.1735,-0.1775,-0.1783,-0.1769,-0.1771,-0.1821,-0.1825,-0.1829,-0.1899,-0.1852,-0.1853,-0.1854,-0.1929,-0.193,-0.1931,0,0,0,0,0,0,-0.1598,-0.1607,-0.1686,-0.1654,-0.1665,-0.1711,-0.1728,-0.1736,-0.1777,-0.1787,-0.1794,-0.1805,-0.1822,-0.1827,-0.1872,-0.1898,-0.1854,-0.1855,-0.1928,-0.1929,-0.1931,-0.1989,0,0,0,0,0,0,-0.1595,-0.1606,-0.1629,-0.1654,-0.1667,-0.1728,-0.1728,-0.1736,-0.1781,-0.1786,-0.182,-0.1824,-0.1823,-0.187,-0.1874,-0.19,-0.1857,-0.1926,-0.1928,-0.193,-0.1986,-0.1993,-0.1998,0,0,0,0,0,-0.1591,-0.1618,-0.163,-0.164,-0.1692,-0.173,-0.1738,-0.1771,-0.1782,-0.1809,-0.1833,-0.1825,-0.1885,-0.1873,-0.1877,-0.1903,-0.1925,-0.1928,-0.193,-0.1983,-0.1991,-0.1998,0,0,0,0,0,0,-0.1586,-0.1626,-0.164,-0.1679,-0.1713,-0.174,-0.1772,-0.1788,-0.1827,-0.184,-0.1844,-0.1851,-0.1898,-0.1893,-0.1878,-0.1931,-0.1902,-0.1905,-0.194,-0.1948,-0.1954,-0.1945,-0.1858,0,0,0,0,0,-0.1594,-0.1627,-0.1661,-0.1696,-0.1716,-0.1748,-0.1772,-0.1795,-0.1826,-0.1846,-0.1868,-0.1887,-0.1905,-0.1923,-0.1937,-0.197,-0.1945,-0.1987,-0.1994,-0.1999,-0.1994,-0.1989,-0.1994,-0.194,-0.194,-0.194,0,0,-0.1602,-0.1629,-0.1649,-0.1698,-0.1727,-0.1763,-0.1766,-0.1815,-0.1848,-0.1844,-0.1904,-0.1915,-0.1919,-0.1957,-0.1976,-0.1961,-0.2001,-0.2002,-0.2007,-0.1999,-0.1992,-0.1997,-0.2001,-0.1941,-0.1941,-0.1941,0,0,-0.1627,-0.166,-0.1695,-0.1727,-0.1779,-0.1797,-0.1818,-0.1862,-0.1891,-0.194,-0.1943,-0.1972,-0.2007,-0.2012,-0.2016,-0.2065,-0.2035,-0.2074,-0.2101,-0.2097,-0.2101,-0.2104,-0.2073,-0.2073,-0.2077,-0.2077,-0.2077,0,-0.1637,-0.1682,-0.1712,-0.1751,-0.1781,-0.1815,-0.1855,-0.1886,-0.1941,-0.1959,-0.1971,-0.2018,-0.2028,-0.2056,-0.2075,-0.2079,-0.2063,-0.2073,-0.2104,-0.2107,-0.2109,-0.2077,-0.2076,-0.208,-0.208,-0.2079,-0.2079,0,-0.1676,-0.1724,-0.175,-0.1807,-0.1842,-0.1886,-0.1926,-0.1966,-0.1999,-0.202,-0.207,-0.2085,-0.2105,-0.2118,-0.2114,-0.2139,-0.2116,-0.2113,-0.2083,-0.2118,-0.2082,-0.208,-0.2085,-0.2083,-0.2082,-0.2082,0,0,-0.1662,-0.176,-0.177,-0.1809,-0.1877,-0.1907,-0.1961,-0.2009,-0.2041,-0.209,-0.2122,-0.2159,-0.2163,-0.2167,-0.2169,-0.2171,-0.2176,-0.2155,-0.2153,-0.212,-0.2149,-0.2008,-0.1992,-0.2183,-0.2183,-0.2183,-0.2115,0,-0.1685,-0.1766,-0.1806,-0.1881,-0.1923,-0.1967,-0.2011,-0.2057,-0.2093,-0.2133,-0.215,-0.2185,-0.2183,-0.2198,-0.2202,-0.2184,-0.2175,-0.2193,-0.2123,-0.212,-0.1988,-0.1987,-0.2184,-0.2113,-0.2113,-0.2112,-0.2112,0,-0.1698,-0.1754,-0.1832,-0.1919,-0.1942,-0.1989,-0.2053,-0.2098,-0.2147,-0.2175,-0.2204,-0.2215,-0.223,-0.2225,-0.2203,-0.2216,-0.2186,-0.2167,-0.2164,-0.2007,-0.1975,-0.2073,-0.2108,-0.2109,-0.2109,-0.2109,-0.2109,0,-0.1656,-0.1765,-0.1829,-0.1861,-0.1962,-0.2003,-0.2054,-0.2111,-0.2135,-0.2199,-0.2208,-0.2239,-0.2238,-0.2227,-0.2184,-0.22,-0.214,-0.2153,-0.1993,-0.1983,-0.2106,-0.2104,-0.2129,-0.2129,-0.2129,-0.2129,-0.213,0,-0.1641,-0.1696,-0.1823,-0.1856,-0.1914,-0.1999,-0.2049,-0.2099,-0.2157,-0.2159,-0.2226,-0.2204,-0.224,-0.2206,-0.2182,-0.206,-0.2133,-0.1981,-0.1952,-0.2132,-0.2133,-0.2104,-0.2102,-0.2127,-0.2127,-0.2128,-0.2128,0,-0.1569,-0.1663,-0.1734,-0.186,-0.1894,-0.1933,-0.2021,-0.2037,-0.2125,-0.2124,-0.214,-0.217,-0.2118,-0.2122,-0.2083,-0.2021,-0.1951,-0.1893,-0.2061,-0.2047,-0.1798,-0.1801,-0.1704,-0.1698,-0.1694,-0.169,-0.1686,0,-0.1533,-0.1571,-0.1703,-0.1719,-0.1775,-0.1848,-0.1869,-0.199,-0.1997,-0.2063,-0.2031,-0.2026,-0.2022,-0.1837,-0.1881,-0.1814,-0.1799,-0.176,-0.1799,-0.1771,-0.1754,-0.1764,-0.1772,-0.1679,-0.1677,-0.1676,-0.1675,0,-0.1443,-0.1508,-0.1551,-0.1593,-0.1633,-0.1673,-0.1731,-0.1731,-0.184,-0.1933,-0.1853,-0.1816,-0.1748,-0.1711,-0.1667,-0.1629,-0.179,-0.171,-0.172,-0.1757,-0.1739,-0.1729,-0.1743,-0.1658,-0.1661,-0.1662,-0.1663,0,-0.1351,-0.135,-0.141,-0.1424,-0.1468,-0.1474,-0.1541,-0.1544,-0.1581,-0.1685,-0.164,-0.165,-0.1699,-0.161,-0.1569,-0.152,-0.1508,-0.1477,-0.15,-0.1519,-0.1494,-0.1447,-0.1233,0,0,0,0,0,-0.1248,-0.1225,-0.1226,-0.1242,-0.1281,-0.1316,-0.1416,-0.1492,-0.1614,-0.1501,-0.1575,-0.1505,-0.1438,-0.1448,-0.1357,-0.15,-0.1526,-0.1391,-0.1507,-0.1567,-0.1586,-0.1576,0,0,0,0,0,0,-0.1171,-0.1172,-0.1171,-0.1085,-0.1057,-0.1096,-0.1164,-0.1258,-0.1223,-0.1342,-0.1302,-0.1394,-0.1344,-0.1434,-0.1307,-0.1315,-0.1358,-0.1418,-0.1414,-0.1556,-0.1573,-0.1588,-0.1585,0,0,0,0,0]},{"header":{"parameterUnit":"m.s-1","parameterCategory":2,"la1":30.2991,"la2":30.254,"lo1":-89.0895,"lo2":-89.0444,"dy":0.0017,"dx":0.0017,"nx":28,"ny":28,"refTime":"2025-05-15T21:00:00:Z","depth":"4","parameterNumber":3,"parameterNumberName":"V-component_of_CURRENTS"},"data":[0,0,0,0,0,0,0,0,0,0,0,0,0,0,0,0,0,0,0,0,0,0,0,0,0,0,0,0,0,0,0,0,0,0,0,0,0,0,0,0,0,0,0,0,0,0,0,0,0,0,0,0,0,0,0,0,0,0,-0.0231,-0.0231,0,-0.0173,-0.0172,-0.0171,-0.0143,-0.0143,-0.0144,-0.0144,-0.0042,-0.004,-0.0037,0,0,0,0,0,0,0,0,0,0,0,0,0,-0.027,-0.0269,-0.0231,-0.0231,-0.023,-0.0173,-0.0172,-0.0171,-0.0143,-0.0143,-0.0144,-0.0144,-0.0043,-0.004,-0.0036,0,0,0,0,0,0,0,0,0,0,0,0,0,-0.0235,-0.0269,-0.0232,-0.021,-0.0208,-0.0173,-0.0172,-0.0171,-0.0143,-0.0143,-0.0144,-0.0144,-0.0044,-0.004,-0.0036,-0.0006,0,0,-0.0023,-0.0021,0,0,0,0,0,0,0,0,-0.0237,-0.0234,-0.0214,-0.0212,-0.0209,-0.0167,-0.0148,-0.0114,-0.0143,-0.0167,-0.0144,-0.0144,-0.008,-0.0073,-0.0061,-0.0002,0.0003,-0.0023,-0.002,-0.0018,-0.0017,0,0,0,0,0,0,0,-0.024,-0.0236,-0.0207,-0.0213,-0.021,-0.0187,-0.0182,-0.0142,-0.0122,-0.0165,-0.0163,-0.0158,-0.0079,-0.0065,-0.0058,0.0004,-0.0023,-0.0019,-0.0017,-0.0015,0.009,0.0091,0,0,0,0,0,0,-0.0252,-0.0239,-0.0209,-0.0206,-0.0225,-0.0186,-0.0181,-0.0179,-0.0123,-0.0115,-0.0158,-0.0157,-0.0072,-0.0063,-0.0055,-0.0018,-0.0018,-0.0014,-0.0012,0.009,0.009,0.0091,0,0,0,0,0,0,-0.0253,-0.025,-0.0211,-0.0221,-0.0215,-0.0186,-0.0183,-0.0178,-0.0167,-0.0118,-0.011,-0.0154,-0.0072,-0.006,-0.002,-0.0014,-0.0013,-0.0009,0.009,0.009,0.0091,0.0055,0,0,0,0,0,0,-0.0254,-0.0251,-0.0255,-0.0222,-0.0215,-0.0195,-0.0183,-0.0177,-0.0164,-0.0163,-0.0112,-0.0102,-0.0071,-0.0026,-0.0016,-0.0008,-0.0005,0.0089,0.009,0.009,0.0056,0.0055,0.0053,0,0,0,0,0,-0.0256,-0.026,-0.0256,-0.0252,-0.0221,-0.0195,-0.0189,-0.0167,-0.0164,-0.0159,-0.0125,-0.0104,-0.0016,-0.0023,-0.001,-0.0002,0.0089,0.009,0.009,0.0057,0.0055,0.0053,0,0,0,0,0,0,-0.0279,-0.0256,-0.0251,-0.0249,-0.0226,-0.019,-0.0186,-0.0171,-0.014,-0.014,-0.0096,-0.0084,-0.0049,-0.0019,-0.0028,0.003,0.0039,0.0042,0.0009,0.0008,0.0006,-0.0002,-0.0002,0,0,0,0,0,-0.0287,-0.0286,-0.0257,-0.0257,-0.0247,-0.0218,-0.0206,-0.0192,-0.016,-0.0148,-0.0112,-0.0073,-0.0035,-0.0011,0.0025,0.0062,0.0087,0.0074,0.0073,0.0071,0.0073,0.0119,0.0121,0.0093,0.0093,0.0093,0,0,-0.0298,-0.0285,-0.0285,-0.0262,-0.0245,-0.0228,-0.0211,-0.0196,-0.0179,-0.014,-0.0108,-0.0077,-0.0028,0.0009,0.0028,0.0035,0.009,0.0072,0.007,0.0073,0.012,0.0123,0.0125,0.0093,0.0093,0.0093,0,0,-0.0314,-0.0307,-0.0307,-0.0288,-0.0264,-0.0242,-0.024,-0.0205,-0.0188,-0.0154,-0.0124,-0.0088,-0.0032,0.0007,0.0034,0.0048,0.0076,0.0053,0.0047,0.0091,0.0094,0.0097,0.0118,0.0123,0.0058,0.0058,0.0057,0,-0.033,-0.0325,-0.0303,-0.0293,-0.0279,-0.025,-0.0241,-0.0215,-0.0171,-0.0153,-0.015,-0.007,-0.003,0.0023,0.0025,0.0046,0.0064,0.0048,0.0089,0.0092,0.0096,0.0117,0.0123,0.0056,0.0056,0.0056,0.0056,0,-0.0338,-0.0334,-0.0332,-0.031,-0.0289,-0.0279,-0.024,-0.0219,-0.0199,-0.0171,-0.0127,-0.0076,-0.0029,-0.0011,0.0014,0.0058,0.0059,0.0076,0.0091,0.0096,0.0118,0.0125,0.0054,0.0054,0.0055,0.0055,0,0,-0.0379,-0.0346,-0.0348,-0.0346,-0.0299,-0.0291,-0.0252,-0.0215,-0.0205,-0.0158,-0.0136,-0.0067,-0.005,-0.0019,0.0015,0.0057,0.0094,0.0072,0.0075,0.0087,0.0172,0.0128,0.0132,0.0115,0.0116,0.0117,0.0172,0,-0.0396,-0.0399,-0.0361,-0.0357,-0.0356,-0.0305,-0.0278,-0.0238,-0.0204,-0.0177,-0.0116,-0.0088,-0.0049,-0.004,0.0012,0.0069,0.0112,0.0076,0.017,0.0172,0.0129,0.0139,0.0121,0.0177,0.0178,0.018,0.018,0,-0.0418,-0.0419,-0.0425,-0.0397,-0.039,-0.0379,-0.0342,-0.031,-0.0248,-0.0221,-0.017,-0.013,-0.0062,-0.004,0.0077,0.0048,0.0107,0.0155,0.0158,0.0137,0.0142,0.0176,0.0193,0.0192,0.0191,0.019,0.0189,0,-0.0482,-0.0461,-0.0476,-0.0466,-0.0427,-0.042,-0.0395,-0.0337,-0.0324,-0.026,-0.0254,-0.0157,-0.0133,-0.0029,0.0064,0.0074,0.0177,0.0207,0.0228,0.0225,0.0263,0.026,0.0294,0.0294,0.0294,0.0294,0.0294,0,-0.0516,-0.053,-0.052,-0.0532,-0.0557,-0.0493,-0.0504,-0.0459,-0.0409,-0.0413,-0.0299,-0.0287,-0.013,-0.0056,0.0049,0.0143,0.0171,0.0227,0.0241,0.0245,0.0239,0.0267,0.0263,0.0296,0.0296,0.0295,0.0295,0,-0.058,-0.0569,-0.06,-0.0589,-0.0594,-0.0618,-0.0598,-0.0604,-0.0534,-0.0536,-0.0522,-0.0393,-0.0285,-0.014,0.0018,0.01,0.0211,0.0239,0.0207,0.0219,0.0238,0.0232,0.0285,0.0284,0.0283,0.0283,0.0282,0,-0.0607,-0.0633,-0.0674,-0.0712,-0.0715,-0.0738,-0.0758,-0.0693,-0.0694,-0.0612,-0.0625,-0.0511,-0.0421,-0.0223,-0.0058,0.0143,0.0173,0.0231,0.0269,0.023,0.024,0.0235,0.023,0.0281,0.0281,0.028,0.028,0,-0.0663,-0.0691,-0.072,-0.0806,-0.0854,-0.0889,-0.0905,-0.0912,-0.0838,-0.0801,-0.0711,-0.0573,-0.0454,-0.0254,-0.0108,0.0039,0.0199,0.0224,0.0228,0.0264,0.0226,0.0235,0.0231,0.0277,0.0278,0.0278,0.0278,0,-0.0713,-0.0761,-0.0813,-0.0879,-0.0951,-0.0992,-0.0993,-0.0971,-0.0947,-0.0842,-0.0832,-0.0647,-0.0539,-0.0311,-0.018,-0.0038,0.0019,0.008,0.0092,0.0097,0.0031,-0.0045,-0.0065,0,0,0,0,0,-0.0747,-0.0799,-0.0873,-0.094,-0.1011,-0.1037,-0.1064,-0.1045,-0.1001,-0.0959,-0.0877,-0.0757,-0.0512,-0.0392,-0.0256,-0.0194,0.0034,-0.0032,0.0107,0.0261,0.0265,0.0216,0,0,0,0,0,0,-0.0771,-0.0848,-0.0878,-0.0964,-0.1014,-0.1078,-0.1091,-0.1064,-0.1012,-0.0953,-0.0821,-0.0737,-0.05,-0.0599,-0.0259,-0.0213,-0.0108,0.0088,0.0091,0.0259,0.0262,0.0265,0.0216,0,0,0,0,0]}]]